Location: Newark
(34.9500°N, 139.9667°E)
Time: 11:19:11
(UTC+00:00)

deb Explorer IX - Pass Details

Date: 13 December 2019
Orbit: 548 x 1101 km, 38.8° (Epoch: 17 January)

Event Time Altitude Azimuth Distance (km) Brightness Sun altitude
Rises 08:32:36 0° 280° (W) 3,363 ? -12.7°
Reaches altitude 10° 08:35:00 10° 284° (WNW) 2,512 ? -13.2°
Maximum altitude 08:41:03 63° 6° (N) 1,067 ? -14.3°
Enters shadow 08:45:45 21° 82° (E) 2,119 ? -15.3°
